TimeCST,TemperatureF,Dew PointF,Humidity,Sea Level PressureIn,VisibilityMPH,Wind Direction,Wind SpeedMPH,Gust SpeedMPH,PrecipitationIn,Events,Conditions,WindDirDegrees,DateUTC
12:53 AM,27.0,18.0,69,30.37,10.0,NNW,19.6,24.2,0.00,,Clear,340,2013-02-15 06:53:00
1:53 AM,25.0,18.0,75,30.38,10.0,NNW,18.4,-,0.00,,Clear,340,2013-02-15 07:53:00
2:53 AM,24.1,17.1,75,30.39,9.0,NNW,19.6,-,0.00,Snow,Light Snow,340,2013-02-15 08:53:00
3:53 AM,23.0,16.0,74,30.40,10.0,NNW,16.1,-,0.00,,Clear,340,2013-02-15 09:53:00
4:53 AM,21.9,16.0,78,30.41,10.0,NNW,11.5,-,N/A,,Clear,340,2013-02-15 10:53:00
5:53 AM,19.0,15.1,85,30.45,10.0,West,5.8,-,N/A,,Clear,280,2013-02-15 11:53:00
6:53 AM,19.0,14.0,81,30.45,10.0,WNW,8.1,-,N/A,,Clear,290,2013-02-15 12:53:00
7:53 AM,19.9,15.1,81,30.47,10.0,WNW,5.8,-,N/A,,Clear,290,2013-02-15 13:53:00
8:53 AM,26.1,18.0,71,30.47,10.0,NNW,5.8,-,N/A,,Clear,340,2013-02-15 14:53:00
9:53 AM,30.0,18.0,61,30.46,10.0,NNW,4.6,-,N/A,,Clear,330,2013-02-15 15:53:00
10:53 AM,33.1,16.0,50,30.45,10.0,North,6.9,-,N/A,,Clear,350,2013-02-15 16:53:00
11:53 AM,34.0,17.1,50,30.45,10.0,NNW,6.9,-,N/A,,Mostly Cloudy,340,2013-02-15 17:53:00
12:53 PM,36.0,17.1,46,30.42,10.0,ENE,4.6,-,N/A,,Partly Cloudy,60,2013-02-15 18:53:00
1:53 PM,37.0,15.1,41,30.40,10.0,North,4.6,-,N/A,,Mostly Cloudy,350,2013-02-15 19:53:00
2:53 PM,39.9,19.9,45,30.36,10.0,NNW,8.1,-,N/A,,Mostly Cloudy,340,2013-02-15 20:53:00
3:53 PM,42.1,16.0,35,30.34,10.0,WNW,8.1,-,N/A,,Overcast,290,2013-02-15 21:53:00
4:53 PM,41.0,16.0,36,30.33,10.0,NW,9.2,-,N/A,,Mostly Cloudy,320,2013-02-15 22:53:00
5:53 PM,39.0,16.0,39,30.33,10.0,NW,6.9,-,N/A,,Overcast,320,2013-02-15 23:53:00
6:53 PM,37.9,16.0,41,30.35,10.0,NNW,15.0,-,N/A,,Overcast,340,2013-02-16 00:53:00
7:53 PM,34.0,12.0,40,30.39,10.0,North,17.3,-,0.00,,Overcast,350,2013-02-16 01:53:00
8:53 PM,30.9,12.0,46,30.40,10.0,North,13.8,-,N/A,,Mostly Cloudy,350,2013-02-16 02:53:00
9:53 PM,27.0,12.9,56,30.42,10.0,NNW,8.1,-,N/A,,Clear,330,2013-02-16 03:53:00
10:53 PM,25.0,12.9,60,30.42,10.0,NW,4.6,-,N/A,,Clear,320,2013-02-16 04:53:00
11:53 PM,21.9,12.9,68,30.42,10.0,West,4.6,-,N/A,,Clear,280,2013-02-16 05:53:00